Location: *
(43.9905°S, 176.4941°W)
Time: 19:42:41
(UTC+00:00)

Cosmos 1953 - Pass Details

Date: 08 December 2019
Orbit: 540 x 557 km, 82.5° (Epoch: 27 January)

Event Time Altitude Azimuth Distance (km) Brightness Sun altitude
Exits shadow 10:59:12 72° 294° (WNW) 602 2.3 -22.7°
Maximum altitude 10:59:26 74° 262° (W) 595 2.4 -22.7°
Drops below altitude 10° 11:03:35 10° 175° (S) 1,883 6.1 -22.8°
Sets 11:05:48 0° 173° (S) 2,787 7.2 -22.9°
